Terminal Aerodrome Forecast
Issued by NWS Pittsburgh, PA

Current Version | Previous Version | Graphics & Text | Print | Product List | Glossary On
Versions: 1 2 3 4 5 6 7 8 9 10 11 12 13 14 15 16 17 18 19 20 21 22 23 24 25 26 27
000
FTUS41 KPBZ 220200 AAA
TAFPIT
TAF AMD
KPIT 220235Z 2203/2306 23006KT P6SM BKN150 OVC200
     FM221100 22010KT 6SM -SHRA BKN035
     FM221300 25010KT 5SM -SHRA BKN015
     FM221700 30012G20KT P6SM BKN030
     FM222100 30012KT P6SM BKN040=

USA.gov is the U.S. government's official web portal to all federal, state and local government web resources and services.